BZN168 LYBE-LGKR

Flight info

Callsign BZN168
Flight time 1h 7m
Altitude 19000
Route VAL N732 TORTO/N0448F370 DCT AKIKA DCT LIMJA N732 PITAS
Aircraft B738/M-SDE2E3FGHIRWXY/LB1

Departure

Time 2026-04-29 08:26
Airport Belgrade Nikola Tesla Airport (LYBE)

Arrival

Time 2026-04-29 09:34
Airport Corfu Ioannis Kapodistrias International Airport (LGKR)
Time Latitude Longitude Altitude Speed Heading
2026-04-29 07:58 44.81775 20.29131 306 ft 0 kts 302°
2026-04-29 08:17 44.81775 20.29133 306 ft 2 kts 302°
2026-04-29 08:18 44.81766 20.29153 306 ft 2 kts 301°
2026-04-29 08:18 44.81758 20.29173 305 ft 2 kts 301°
2026-04-29 08:18 44.81746 20.29189 306 ft 2 kts 329°
2026-04-29 08:18 44.81731 20.29198 305 ft 2 kts
2026-04-29 08:19 44.81721 20.29195 304 ft 0 kts 26°
2026-04-29 08:19 44.81720 20.29195 304 ft 0 kts 27°
2026-04-29 08:20 44.81746 20.29214 306 ft 14 kts 27°
2026-04-29 08:20 44.81831 20.29284 306 ft 0 kts 34°
2026-04-29 08:21 44.81834 20.29287 307 ft 4 kts 34°
2026-04-29 08:21 44.81903 20.29352 307 ft 18 kts 32°
2026-04-29 08:21 44.82025 20.29464 307 ft 22 kts 33°
2026-04-29 08:21 44.82102 20.29607 310 ft 20 kts 107°
2026-04-29 08:22 44.82035 20.29775 308 ft 19 kts 122°
2026-04-29 08:22 44.81964 20.29933 306 ft 19 kts 122°
2026-04-29 08:22 44.81896 20.30087 306 ft 18 kts 121°
2026-04-29 08:22 44.81831 20.30237 306 ft 18 kts 121°
2026-04-29 08:23 44.81770 20.30379 308 ft 17 kts 121°
2026-04-29 08:23 44.81706 20.30515 306 ft 17 kts 123°
2026-04-29 08:23 44.81639 20.30678 306 ft 23 kts 121°
2026-04-29 08:23 44.81531 20.30906 306 ft 32 kts 124°
2026-04-29 08:24 44.81402 20.31199 305 ft 37 kts 122°
2026-04-29 08:24 44.81269 20.31503 305 ft 36 kts 122°
2026-04-29 08:24 44.81128 20.31818 305 ft 33 kts 121°
2026-04-29 08:24 44.81026 20.32049 306 ft 20 kts 122°
2026-04-29 08:25 44.81018 20.32068 306 ft 1 kts 122°
2026-04-29 08:25 44.80999 20.32117 305 ft 11 kts 112°
2026-04-29 08:25 44.81008 20.32233 304 ft 9 kts 52°
2026-04-29 08:25 44.81067 20.32200 303 ft 10 kts 304°
2026-04-29 08:26 44.81100 20.32125 305 ft 11 kts 301°
2026-04-29 08:26 44.81244 20.31802 306 ft 81 kts 302°
2026-04-29 08:26 44.81704 20.30769 324 ft 163 kts 303°
2026-04-29 08:26 44.82332 20.29300 1199 ft 178 kts 300°
2026-04-29 08:27 44.82800 20.27733 2649 ft 169 kts 290°
2026-04-29 08:27 44.82965 20.26091 3619 ft 176 kts 261°
2026-04-29 08:27 44.82428 20.24457 4215 ft 206 kts 233°
2026-04-29 08:27 44.81258 20.23005 4526 ft 242 kts 217°
2026-04-29 08:28 44.79875 20.21519 5268 ft 252 kts 219°
2026-04-29 08:28 44.78503 20.19950 5775 ft 256 kts 221°
2026-04-29 08:28 44.77146 20.18309 6003 ft 261 kts 222°
2026-04-29 08:28 44.75786 20.16599 5991 ft 261 kts 223°
2026-04-29 08:29 44.74448 20.14874 5987 ft 259 kts 224°
2026-04-29 08:29 44.73138 20.13155 5988 ft 256 kts 224°
2026-04-29 08:29 44.71753 20.11320 5996 ft 255 kts 224°
2026-04-29 08:29 44.70555 20.09727 6000 ft 256 kts 224°
2026-04-29 08:30 44.69263 20.08007 5994 ft 256 kts 224°
2026-04-29 08:30 44.66451 20.04978 6023 ft 262 kts 201°
2026-04-29 08:30 44.64700 20.04088 6429 ft 279 kts 200°
2026-04-29 08:31 44.62882 20.03178 7409 ft 279 kts 201°
2026-04-29 08:31 44.61065 20.02262 8553 ft 276 kts 202°
2026-04-29 08:31 44.59257 20.01342 9637 ft 276 kts 204°
2026-04-29 08:31 44.57448 20.00415 10585 ft 279 kts 205°
2026-04-29 08:32 44.55607 19.99464 11433 ft 285 kts 205°
2026-04-29 08:32 44.53731 19.98497 12436 ft 290 kts 205°
2026-04-29 08:32 44.51828 19.97512 13478 ft 293 kts 205°
2026-04-29 08:32 44.49903 19.96515 14342 ft 298 kts 206°
2026-04-29 08:33 44.47940 19.95497 15099 ft 304 kts 206°
2026-04-29 08:33 44.45944 19.94463 15864 ft 308 kts 206°
2026-04-29 08:33 44.43916 19.93414 16635 ft 313 kts 206°
2026-04-29 08:33 44.41860 19.92351 17411 ft 318 kts 206°
2026-04-29 08:34 44.39765 19.91270 18135 ft 323 kts 206°
2026-04-29 08:34 44.37664 19.90185 18788 ft 329 kts 206°
2026-04-29 08:34 44.35477 19.89057 19502 ft 332 kts 206°
2026-04-29 08:34 44.33302 19.87938 20199 ft 335 kts 207°
2026-04-29 08:35 44.31063 19.86964 20720 ft 350 kts 199°
2026-04-29 08:35 44.28570 19.86298 20869 ft 374 kts 195°
2026-04-29 08:35 44.25922 19.85753 21007 ft 395 kts 194°
2026-04-29 08:35 44.23136 19.85219 21140 ft 412 kts 193°
2026-04-29 08:36 44.20296 19.84669 21518 ft 420 kts 193°
2026-04-29 08:36 44.17389 19.84087 22130 ft 423 kts 194°
2026-04-29 08:36 44.14470 19.83479 22779 ft 425 kts 194°
2026-04-29 08:36 44.11524 19.82849 23358 ft 429 kts 194°
2026-04-29 08:37 44.08558 19.82205 23850 ft 433 kts 194°
2026-04-29 08:37 44.05567 19.81544 24310 ft 436 kts 194°
2026-04-29 08:37 44.02564 19.80881 24801 ft 437 kts 194°
2026-04-29 08:37 43.99552 19.80219 25303 ft 439 kts 194°
2026-04-29 08:38 43.96564 19.79562 25707 ft 443 kts 194°
2026-04-29 08:38 43.93523 19.78896 25735 ft 440 kts 194°
2026-04-29 08:38 43.90488 19.78232 25753 ft 443 kts 194°
2026-04-29 08:38 43.87431 19.77562 25755 ft 443 kts 194°
2026-04-29 08:39 43.84387 19.76898 25741 ft 443 kts 194°
2026-04-29 08:39 43.81339 19.76234 25731 ft 443 kts 194°
2026-04-29 08:39 43.78285 19.75568 25735 ft 443 kts 194°
2026-04-29 08:39 43.75237 19.74904 25736 ft 443 kts 194°
2026-04-29 08:40 43.72193 19.74241 25728 ft 443 kts 194°
2026-04-29 08:40 43.69150 19.73579 25728 ft 443 kts 194°
2026-04-29 08:40 43.66095 19.72957 25738 ft 444 kts 192°
2026-04-29 08:40 43.63012 19.72513 25715 ft 445 kts 189°
2026-04-29 08:41 43.59921 19.72168 25721 ft 446 kts 189°
2026-04-29 08:41 43.56866 19.71861 25716 ft 446 kts 188°
2026-04-29 08:41 43.53766 19.71552 25715 ft 446 kts 189°
2026-04-29 08:41 43.50672 19.71232 25715 ft 446 kts 189°
2026-04-29 08:42 43.47575 19.70901 25707 ft 446 kts 189°
2026-04-29 08:42 43.44474 19.70559 25693 ft 446 kts 189°
2026-04-29 08:42 43.41383 19.70211 25706 ft 445 kts 189°
2026-04-29 08:42 43.38292 19.69862 25704 ft 445 kts 189°
2026-04-29 08:43 43.35205 19.69512 25703 ft 445 kts 189°
2026-04-29 08:43 43.32120 19.69164 25700 ft 444 kts 189°
2026-04-29 08:43 43.29040 19.68815 25688 ft 444 kts 189°
2026-04-29 08:43 43.25958 19.68467 25671 ft 444 kts 189°
2026-04-29 08:44 43.22883 19.68121 25685 ft 443 kts 189°
2026-04-29 08:44 43.19807 19.67775 25692 ft 443 kts 189°
2026-04-29 08:44 43.16767 19.67433 25688 ft 443 kts 189°
2026-04-29 08:44 43.13691 19.67087 25688 ft 444 kts 189°
2026-04-29 08:45 43.10615 19.66742 25680 ft 443 kts 189°
2026-04-29 08:45 43.07534 19.66397 25684 ft 442 kts 189°
2026-04-29 08:45 43.04455 19.66052 25695 ft 443 kts 189°
2026-04-29 08:45 43.01380 19.65708 25691 ft 443 kts 189°
2026-04-29 08:46 42.98308 19.65363 25690 ft 442 kts 189°
2026-04-29 08:46 42.95237 19.65022 25700 ft 442 kts 189°
2026-04-29 08:46 42.92168 19.64680 25691 ft 443 kts 189°
2026-04-29 08:46 42.89137 19.64343 25676 ft 443 kts 189°
2026-04-29 08:47 42.86058 19.64001 25681 ft 443 kts 189°
2026-04-29 08:47 42.82988 19.63659 25689 ft 443 kts 189°
2026-04-29 08:47 42.79910 19.63317 25688 ft 443 kts 189°
2026-04-29 08:47 42.76833 19.62976 25693 ft 443 kts 189°
2026-04-29 08:48 42.73747 19.62634 25682 ft 444 kts 189°
2026-04-29 08:48 42.70669 19.62294 25684 ft 443 kts 189°
2026-04-29 08:48 42.67629 19.61958 25683 ft 443 kts 189°
2026-04-29 08:48 42.64555 19.61617 25693 ft 444 kts 189°
2026-04-29 08:49 42.61473 19.61277 25688 ft 443 kts 189°
2026-04-29 08:49 42.58401 19.60938 25691 ft 442 kts 189°
2026-04-29 08:49 42.55330 19.60600 25709 ft 442 kts 189°
2026-04-29 08:49 42.52257 19.60275 25677 ft 443 kts 188°
2026-04-29 08:50 42.49167 19.60081 25710 ft 444 kts 186°
2026-04-29 08:50 42.46067 19.59968 25706 ft 445 kts 185°
2026-04-29 08:50 42.43000 19.59884 25707 ft 446 kts 185°
2026-04-29 08:50 42.39900 19.59802 25698 ft 446 kts 185°
2026-04-29 08:51 42.36786 19.59710 25705 ft 446 kts 185°
2026-04-29 08:51 42.33679 19.59607 25697 ft 446 kts 185°
2026-04-29 08:51 42.30577 19.59495 25700 ft 445 kts 185°
2026-04-29 08:51 42.27474 19.59378 25693 ft 446 kts 185°
2026-04-29 08:52 42.24373 19.59259 25690 ft 445 kts 185°
2026-04-29 08:52 42.21281 19.59139 25704 ft 445 kts 186°
2026-04-29 08:52 42.18223 19.59019 25706 ft 446 kts 186°
2026-04-29 08:52 42.15114 19.58898 25711 ft 446 kts 185°
2026-04-29 08:53 42.12008 19.58778 25697 ft 447 kts 185°
2026-04-29 08:53 42.08883 19.58655 25906 ft 452 kts 185°
2026-04-29 08:53 42.05739 19.58531 26429 ft 452 kts 185°
2026-04-29 08:53 42.02597 19.58410 27002 ft 452 kts 185°
2026-04-29 08:54 41.99446 19.58288 27445 ft 455 kts 185°
2026-04-29 08:54 41.96271 19.58165 27828 ft 458 kts 185°
2026-04-29 08:54 41.93069 19.58041 28213 ft 462 kts 185°
2026-04-29 08:54 41.90933 19.57958 28459 ft 463 kts 185°
2026-04-29 08:55 41.87690 19.57834 28864 ft 466 kts 185°
2026-04-29 08:55 41.84443 19.57709 29249 ft 469 kts 185°
2026-04-29 08:55 41.81169 19.57584 29616 ft 471 kts 185°
2026-04-29 08:55 41.76810 19.57417 30096 ft 475 kts 185°
2026-04-29 08:56 41.73497 19.57291 30403 ft 477 kts 185°
2026-04-29 08:56 41.70180 19.57164 30779 ft 476 kts 185°
2026-04-29 08:56 41.67944 19.57080 31099 ft 475 kts 185°
2026-04-29 08:56 41.64646 19.56956 31587 ft 472 kts 185°
2026-04-29 08:57 41.61368 19.56832 32001 ft 471 kts 185°
2026-04-29 08:57 41.58131 19.56713 32365 ft 472 kts 185°
2026-04-29 08:57 41.54917 19.56606 32735 ft 471 kts 185°
2026-04-29 08:57 41.51640 19.56490 33144 ft 470 kts 185°
2026-04-29 08:58 41.48367 19.56369 33584 ft 469 kts 185°
2026-04-29 08:58 41.45112 19.56244 33980 ft 468 kts 185°
2026-04-29 08:58 41.41858 19.56118 34324 ft 467 kts 185°
2026-04-29 08:58 41.38606 19.55993 34652 ft 467 kts 185°
2026-04-29 08:59 41.35359 19.55868 34956 ft 467 kts 185°
2026-04-29 08:59 41.32115 19.55744 35259 ft 466 kts 185°
2026-04-29 08:59 41.28874 19.55621 35598 ft 465 kts 185°
2026-04-29 08:59 41.25636 19.55499 35924 ft 465 kts 185°
2026-04-29 09:00 41.22438 19.55378 36186 ft 465 kts 185°
2026-04-29 09:00 41.19188 19.55255 36459 ft 465 kts 185°
2026-04-29 09:00 41.15947 19.55133 36771 ft 465 kts 185°
2026-04-29 09:00 41.12716 19.55011 37080 ft 464 kts 185°
2026-04-29 09:01 41.09474 19.54888 37106 ft 468 kts 185°
2026-04-29 09:01 41.02933 19.54642 37109 ft 469 kts 185°
2026-04-29 09:02 40.96503 19.54404 37099 ft 462 kts 185°
2026-04-29 09:02 40.90081 19.54163 37095 ft 459 kts 185°
2026-04-29 09:02 40.86934 19.54048 37077 ft 445 kts 185°
2026-04-29 09:03 40.83893 19.53938 37092 ft 431 kts 186°
2026-04-29 09:03 40.80944 19.53830 37083 ft 418 kts 186°
2026-04-29 09:03 40.78081 19.53723 37090 ft 405 kts 186°
2026-04-29 09:03 40.75307 19.53619 37084 ft 392 kts 186°
2026-04-29 09:04 40.72624 19.53518 37088 ft 380 kts 186°
2026-04-29 09:04 40.67311 19.53308 37113 ft 387 kts 186°
2026-04-29 09:05 40.61848 19.53097 37115 ft 402 kts 186°
2026-04-29 09:05 40.56212 19.53414 37089 ft 407 kts 172°
2026-04-29 09:05 40.53501 19.54423 36894 ft 403 kts 164°
2026-04-29 09:06 40.50834 19.55687 36097 ft 413 kts 162°
2026-04-29 09:06 40.48095 19.57028 35116 ft 428 kts 162°
2026-04-29 09:06 40.45259 19.58422 34061 ft 443 kts 162°
2026-04-29 09:06 40.42315 19.59856 32848 ft 458 kts 162°
2026-04-29 09:07 40.39322 19.61298 31735 ft 469 kts 162°
2026-04-29 09:07 40.36229 19.62776 30725 ft 477 kts 162°
2026-04-29 09:07 40.33092 19.64252 29987 ft 476 kts 162°
2026-04-29 09:07 40.29986 19.65703 29425 ft 470 kts 162°
2026-04-29 09:08 40.26934 19.67137 29109 ft 458 kts 162°
2026-04-29 09:08 40.23995 19.68525 29101 ft 441 kts 162°
2026-04-29 09:08 40.21160 19.69863 29090 ft 425 kts 162°
2026-04-29 09:08 40.18419 19.71154 29005 ft 412 kts 162°
2026-04-29 09:09 40.15753 19.72407 28828 ft 403 kts 162°
2026-04-29 09:09 40.13110 19.73646 28142 ft 406 kts 162°
2026-04-29 09:09 40.10411 19.74907 26966 ft 421 kts 162°
2026-04-29 09:09 40.07626 19.76207 25777 ft 437 kts 162°
2026-04-29 09:10 40.04741 19.77556 24999 ft 441 kts 162°
2026-04-29 09:10 40.01863 19.78906 24523 ft 435 kts 161°
2026-04-29 09:10 39.99029 19.80232 24082 ft 429 kts 161°
2026-04-29 09:10 39.96232 19.81539 23582 ft 425 kts 161°
2026-04-29 09:11 39.93448 19.82838 22962 ft 422 kts 161°
2026-04-29 09:11 39.90696 19.84133 22383 ft 419 kts 161°
2026-04-29 09:11 39.87935 19.85274 21792 ft 413 kts 171°
2026-04-29 09:11 39.85142 19.85205 21285 ft 393 kts 198°
2026-04-29 09:12 39.82842 19.83682 21183 ft 365 kts 223°
2026-04-29 09:12 39.81388 19.81156 21049 ft 339 kts 250°
2026-04-29 09:12 39.81063 19.78249 20932 ft 317 kts 279°
2026-04-29 09:12 39.81810 19.75656 20836 ft 299 kts 298°
2026-04-29 09:13 39.82619 19.73218 20506 ft 293 kts 284°
2026-04-29 09:13 39.82597 19.70591 19955 ft 297 kts 252°
2026-04-29 09:13 39.81459 19.68340 19529 ft 304 kts 225°
2026-04-29 09:13 39.79856 19.66559 19280 ft 302 kts 221°
2026-04-29 09:14 39.78217 19.64849 18941 ft 302 kts 223°
2026-04-29 09:14 39.76832 19.62763 18325 ft 309 kts 239°
2026-04-29 09:14 39.75688 19.60361 17690 ft 316 kts 241°
2026-04-29 09:14 39.74691 19.58201 19076 ft 215 kts 243°
2026-04-29 09:15 39.73931 19.56541 19815 ft 211 kts 243°
2026-04-29 09:15 39.73131 19.54779 19601 ft 245 kts 235°
2026-04-29 09:15 39.71842 19.53148 19558 ft 269 kts 227°
2026-04-29 09:15 39.70681 19.51181 19686 ft 282 kts 240°
2026-04-29 09:16 39.69609 19.49003 19694 ft 287 kts 239°
2026-04-29 09:16 39.68533 19.46820 19704 ft 287 kts 239°
2026-04-29 09:16 39.67455 19.44629 19573 ft 290 kts 239°
2026-04-29 09:16 39.66346 19.42363 18922 ft 302 kts 239°
2026-04-29 09:17 39.65211 19.40037 18319 ft 307 kts 239°
2026-04-29 09:17 39.64058 19.37670 17632 ft 311 kts 239°
2026-04-29 09:17 39.62911 19.35314 16984 ft 316 kts 239°
2026-04-29 09:17 39.61658 19.32946 16323 ft 323 kts 228°
2026-04-29 09:18 39.59767 19.31343 15664 ft 332 kts 199°
2026-04-29 09:18 39.57475 19.30803 15065 ft 337 kts 187°
2026-04-29 09:18 39.55130 19.30578 14449 ft 340 kts 185°
2026-04-29 09:18 39.52760 19.30405 13819 ft 342 kts 185°
2026-04-29 09:19 39.50380 19.30287 13101 ft 344 kts 179°
2026-04-29 09:19 39.48055 19.31116 12163 ft 356 kts 150°
2026-04-29 09:19 39.46261 19.33274 11414 ft 353 kts 122°
2026-04-29 09:19 39.45423 19.36204 10809 ft 345 kts 96°
2026-04-29 09:20 39.45423 19.39185 10699 ft 321 kts 81°
2026-04-29 09:20 39.45943 19.41903 10543 ft 302 kts 67°
2026-04-29 09:20 39.46950 19.44197 10427 ft 287 kts 51°
2026-04-29 09:20 39.48188 19.46176 10307 ft 278 kts 47°
2026-04-29 09:21 39.49451 19.48068 10207 ft 279 kts 47°
2026-04-29 09:21 39.50732 19.49987 10052 ft 284 kts 47°
2026-04-29 09:21 39.52010 19.51929 9729 ft 279 kts 48°
2026-04-29 09:21 39.53242 19.53822 9435 ft 270 kts 48°
2026-04-29 09:22 39.54435 19.55666 9105 ft 264 kts 48°
2026-04-29 09:22 39.55602 19.57472 8812 ft 258 kts 48°
2026-04-29 09:22 39.56825 19.59158 8521 ft 256 kts 32°
2026-04-29 09:22 39.58399 19.60122 8330 ft 255 kts 19°
2026-04-29 09:23 39.60073 19.60988 8057 ft 261 kts 20°
2026-04-29 09:23 39.61764 19.61877 7774 ft 262 kts 20°
2026-04-29 09:23 39.63448 19.62772 7491 ft 261 kts 20°
2026-04-29 09:23 39.65126 19.63670 7221 ft 261 kts 20°
2026-04-29 09:24 39.66801 19.64568 6943 ft 260 kts 20°
2026-04-29 09:24 39.68475 19.65466 6670 ft 260 kts 20°
2026-04-29 09:24 39.70145 19.66370 6393 ft 260 kts 22°
2026-04-29 09:24 39.71759 19.67440 6094 ft 260 kts 27°
2026-04-29 09:25 39.73380 19.68621 5543 ft 272 kts 28°
2026-04-29 09:25 39.75031 19.69832 5187 ft 274 kts 28°
2026-04-29 09:25 39.76676 19.71055 4862 ft 270 kts 28°
2026-04-29 09:25 39.78297 19.72215 4599 ft 261 kts 27°
2026-04-29 09:26 39.79848 19.73318 4415 ft 245 kts 27°
2026-04-29 09:26 39.81264 19.74328 4292 ft 225 kts 27°
2026-04-29 09:26 39.82577 19.75268 4185 ft 207 kts 27°
2026-04-29 09:26 39.83798 19.76140 4107 ft 193 kts 27°
2026-04-29 09:27 39.84924 19.77014 4035 ft 188 kts 40°
2026-04-29 09:27 39.85545 19.78459 3966 ft 185 kts 84°
2026-04-29 09:27 39.85302 19.80069 3934 ft 177 kts 118°
2026-04-29 09:27 39.84617 19.81489 4080 ft 210 kts 122°
2026-04-29 09:28 39.83909 19.83159 4072 ft 209 kts 119°
2026-04-29 09:28 39.83220 19.84842 3617 ft 214 kts 119°
2026-04-29 09:28 39.82513 19.86540 3287 ft 208 kts 119°
2026-04-29 09:28 39.81841 19.88133 3199 ft 192 kts 119°
2026-04-29 09:29 39.81227 19.89581 3209 ft 182 kts 119°
2026-04-29 09:29 39.79257 19.91157 3212 ft 181 kts 176°
2026-04-29 09:29 39.78006 19.91305 3214 ft 180 kts 176°
2026-04-29 09:30 39.76749 19.91457 3182 ft 181 kts 176°
2026-04-29 09:30 39.75530 19.91608 3161 ft 167 kts 176°
2026-04-29 09:30 39.74436 19.91639 3044 ft 156 kts 185°
2026-04-29 09:30 39.73369 19.91551 2793 ft 154 kts 186°
2026-04-29 09:31 39.72306 19.91430 2557 ft 154 kts 185°
2026-04-29 09:31 39.71248 19.91344 2341 ft 152 kts 184°
2026-04-29 09:31 39.70187 19.91257 2116 ft 153 kts 184°
2026-04-29 09:31 39.69122 19.91147 1773 ft 155 kts 187°
2026-04-29 09:32 39.68066 19.90988 1471 ft 148 kts 187°
2026-04-29 09:32 39.67053 19.90812 1303 ft 147 kts 188°
2026-04-29 09:32 39.66031 19.90651 1207 ft 149 kts 186°
2026-04-29 09:32 39.64978 19.90529 974 ft 153 kts 184°
2026-04-29 09:33 39.63915 19.90470 648 ft 151 kts 178°
2026-04-29 09:33 39.62889 19.90549 427 ft 146 kts 170°
2026-04-29 09:33 39.61906 19.90774 266 ft 141 kts 167°
2026-04-29 09:33 39.60928 19.91021 56 ft 143 kts 167°
2026-04-29 09:34 39.59961 19.91272 29 ft 142 kts 165°
2026-04-29 09:34 39.59095 19.91521 19 ft 104 kts 162°
2026-04-29 09:34 39.59767 19.91324 21 ft 1 kts 165°
2026-04-29 09:34 39.59751 19.91330 20 ft 4 kts 165°
2026-04-29 09:35 39.59719 19.91340 19 ft 6 kts 165°
2026-04-29 09:35 39.59674 19.91356 20 ft 7 kts 165°
2026-04-29 09:35 39.59621 19.91374 18 ft 8 kts 165°
2026-04-29 09:35 39.59561 19.91395 17 ft 9 kts 165°
2026-04-29 09:36 39.59495 19.91419 17 ft 10 kts 165°
2026-04-29 09:36 39.59439 19.91439 16 ft 11 kts 164°